Location: Glens Falls
(43.3090°N, 73.6440°W)
Time: 01:21:41
(UTC-04:00)

Cosmos 1072 Rocket - Pass Details

Date: 24 February 2018
Orbit: 947 x 1010 km, 82.9° (Epoch: 21 June)

Event Time Altitude Azimuth Distance (km) Brightness Sun altitude
Rises 18:12:14 0° 353° (N) 3,659 7.5 -7.1°
Reaches altitude 10° 18:14:45 10° 355° (N) 2,716 6.8 -7.6°
Maximum altitude 18:20:58 75° 81° (E) 1,015 4.5 -8.7°
Drops below altitude 10° 18:27:16 10° 167° (SSE) 2,742 6.8 -9.8°
Sets 18:29:48 0° 169° (S) 3,695 7.4 -10.3°
